Time,TemperatureF,DewpointF,PressureIn,WindDirection,WindDirectionDegrees,WindSpeedMPH,WindSpeedGustMPH,Humidity,HourlyPrecipIn,Conditions,Clouds,dailyrainin,SoftwareType,DateUTC
2017-04-25 00:00:00,56.9,47.0,29.48,NNW,339,3.0,10.0,69,0.00,,,0.00,weatherlink.com 1.10,2017-04-25 05:00:00,
2017-04-25 00:15:00,56.1,46.0,29.48,NW,316,6.0,11.0,69,0.00,,,0.00,weatherlink.com 1.10,2017-04-25 05:15:00,
2017-04-25 00:30:00,55.1,46.0,29.48,NNW,333,4.0,8.0,71,0.00,,,0.00,weatherlink.com 1.10,2017-04-25 05:30:00,
2017-04-25 00:45:00,54.3,45.0,29.48,North,355,5.0,9.0,72,0.00,,,0.00,weatherlink.com 1.10,2017-04-25 05:45:00,
2017-04-25 01:00:00,53.6,45.0,29.48,West,273,2.0,11.0,73,0.00,,,0.00,weatherlink.com 1.10,2017-04-25 06:00:00,
2017-04-25 01:15:00,52.9,45.0,29.47,North,5,6.0,8.0,74,0.00,,,0.00,weatherlink.com 1.10,2017-04-25 06:15:00,
2017-04-25 01:38:00,52.2,45.0,29.48,NW,305,3.0,9.0,75,0.00,,,0.00,weatherlink.com 1.10,2017-04-25 06:38:00,
2017-04-25 01:47:00,51.5,43.0,29.48,NE,39,4.0,10.0,74,0.00,,,0.00,weatherlink.com 1.10,2017-04-25 06:47:00,
2017-04-25 02:01:00,51.0,43.0,29.48,North,4,4.0,8.0,75,0.00,,,0.00,weatherlink.com 1.10,2017-04-25 07:01:00,
2017-04-25 02:16:00,50.6,43.0,29.49,NW,314,2.0,8.0,76,0.00,,,0.00,weatherlink.com 1.10,2017-04-25 07:16:00,
2017-04-25 02:31:00,50.1,43.0,29.49,NW,317,3.0,7.0,76,0.00,,,0.00,weatherlink.com 1.10,2017-04-25 07:31:00,
2017-04-25 02:46:00,49.8,43.0,29.48,NNW,342,6.0,9.0,76,0.00,,,0.00,weatherlink.com 1.10,2017-04-25 07:46:00,
2017-04-25 03:01:00,49.5,42.0,29.47,NNE,15,2.0,12.0,76,0.00,,,0.00,weatherlink.com 1.10,2017-04-25 08:01:00,
2017-04-25 03:16:00,49.1,42.0,29.45,North,352,5.0,14.0,77,0.00,,,0.00,weatherlink.com 1.10,2017-04-25 08:16:00,
2017-04-25 03:31:00,48.9,42.0,29.45,NNE,17,1.0,9.0,77,0.00,,,0.00,weatherlink.com 1.10,2017-04-25 08:31:00,
2017-04-25 03:46:00,48.7,42.0,29.44,NW,318,2.0,11.0,78,0.00,,,0.00,weatherlink.com 1.10,2017-04-25 08:46:00,
2017-04-25 04:01:00,48.7,42.0,29.47,SW,226,1.0,8.0,78,0.00,,,0.00,weatherlink.com 1.10,2017-04-25 09:01:00,
2017-04-25 04:16:00,48.6,42.0,29.49,West,281,1.0,9.0,78,0.00,,,0.00,weatherlink.com 1.10,2017-04-25 09:16:00,
2017-04-25 04:31:00,48.5,42.0,29.50,WNW,302,2.0,7.0,78,0.00,,,0.00,weatherlink.com 1.10,2017-04-25 09:31:00,
2017-04-25 04:46:00,-90.0,-93.0,29.50,NNE,18,7.0,7.0,79,0.00,,,0.00,weatherlink.com 1.10,2017-04-25 09:46:00,
2017-04-25 05:01:00,-999.9,-99.9,29.47,North,-9999,-999.9,-999.0,-999,0.00,,,0.00,weatherlink.com 1.10,2017-04-25 10:01:00,
2017-04-25 05:16:00,-999.9,-99.9,29.44,North,-9999,-999.9,-999.0,-999,0.00,,,0.00,weatherlink.com 1.10,2017-04-25 10:16:00,
2017-04-25 05:31:00,-999.9,-99.9,29.43,North,-9999,-999.9,-999.0,-999,0.00,,,0.00,weatherlink.com 1.10,2017-04-25 10:31:00,
2017-04-25 05:46:00,-999.9,-99.9,29.44,North,-9999,-999.9,-999.0,-999,0.00,,,0.00,weatherlink.com 1.10,2017-04-25 10:46:00,
2017-04-25 06:01:00,-999.9,-99.9,29.48,North,-9999,-999.9,-999.0,-999,0.00,,,0.00,weatherlink.com 1.10,2017-04-25 11:01:00,
2017-04-25 06:17:00,-999.9,-99.9,29.45,North,-9999,-999.9,-999.0,-999,0.00,,,0.00,weatherlink.com 1.10,2017-04-25 11:17:00,
2017-04-25 06:32:00,-999.9,-99.9,29.42,North,-9999,-999.9,-999.0,-999,0.00,,,0.00,weatherlink.com 1.10,2017-04-25 11:32:00,
2017-04-25 06:47:00,-999.9,-99.9,29.40,North,-9999,-999.9,-999.0,-999,0.00,,,0.00,weatherlink.com 1.10,2017-04-25 11:47:00,
2017-04-25 07:02:00,-999.9,-99.9,29.40,North,-9999,-999.9,-999.0,-999,0.00,,,0.00,weatherlink.com 1.10,2017-04-25 12:02:00,
2017-04-25 07:17:00,-999.9,-99.9,29.39,North,-9999,-999.9,-999.0,-999,0.00,,,0.00,weatherlink.com 1.10,2017-04-25 12:17:00,
2017-04-25 07:32:00,-999.9,-99.9,29.41,North,-9999,-999.9,-999.0,-999,0.00,,,0.00,weatherlink.com 1.10,2017-04-25 12:32:00,
2017-04-25 07:47:00,47.5,42.0,29.41,NNE,32,8.0,10.0,81,0.00,,,0.00,weatherlink.com 1.10,2017-04-25 12:47:00,
2017-04-25 08:02:00,47.4,42.0,29.43,ENE,66,6.0,13.0,81,0.00,,,0.00,weatherlink.com 1.10,2017-04-25 13:02:00,
2017-04-25 08:17:00,47.8,42.0,29.49,WNW,291,5.0,7.0,80,0.00,,,0.00,weatherlink.com 1.10,2017-04-25 13:17:00,
2017-04-25 08:32:00,47.1,41.0,29.48,NE,37,4.0,9.0,79,0.00,,,0.00,weatherlink.com 1.10,2017-04-25 13:32:00,
2017-04-25 08:47:00,47.4,42.0,29.48,NNW,328,2.0,9.0,80,0.00,,,0.00,weatherlink.com 1.10,2017-04-25 13:47:00,
2017-04-25 09:02:00,46.4,40.0,29.46,West,262,8.0,13.0,79,0.00,,,0.00,weatherlink.com 1.10,2017-04-25 14:02:00,
2017-04-25 09:17:00,46.8,41.0,29.45,North,350,7.0,16.0,79,0.00,,,0.00,weatherlink.com 1.10,2017-04-25 14:17:00,
2017-04-25 09:32:00,47.3,40.0,29.45,NNW,339,10.0,14.0,77,0.00,,,0.00,weatherlink.com 1.10,2017-04-25 14:32:00,
2017-04-25 09:48:00,48.0,41.0,29.42,NE,50,6.0,12.0,78,0.00,,,0.00,weatherlink.com 1.10,2017-04-25 14:48:00,
2017-04-25 10:03:00,48.8,42.0,29.44,ENE,69,3.0,17.0,76,0.00,,,0.00,weatherlink.com 1.10,2017-04-25 15:03:00,
2017-04-25 10:18:00,50.3,42.0,29.45,NNE,28,7.0,11.0,74,0.00,,,0.00,weatherlink.com 1.10,2017-04-25 15:18:00,
2017-04-25 10:33:00,49.7,42.0,29.45,NW,326,4.0,10.0,75,0.00,,,0.00,weatherlink.com 1.10,2017-04-25 15:33:00,
2017-04-25 10:48:00,49.0,42.0,29.46,WNW,288,1.0,13.0,76,0.00,,,0.00,weatherlink.com 1.10,2017-04-25 15:48:00,
2017-04-25 11:03:00,48.2,41.0,29.48,WSW,241,4.0,12.0,77,0.00,,,0.00,weatherlink.com 1.10,2017-04-25 16:03:00,
2017-04-25 11:18:00,47.0,41.0,29.48,NNW,338,8.0,13.0,80,0.00,,,0.00,weatherlink.com 1.10,2017-04-25 16:18:00,
2017-04-25 11:34:00,47.2,42.0,29.47,NNE,20,5.0,15.0,81,0.00,,,0.00,weatherlink.com 1.10,2017-04-25 16:34:00,
2017-04-25 11:48:00,47.3,41.0,29.47,NNW,340,5.0,15.0,80,0.00,,,0.00,weatherlink.com 1.10,2017-04-25 16:48:00,
2017-04-25 12:03:00,47.6,42.0,29.47,NW,318,5.0,19.0,80,0.00,,,0.00,weatherlink.com 1.10,2017-04-25 17:03:00,
2017-04-25 12:18:00,47.8,42.0,29.47,NW,309,6.0,16.0,79,0.00,,,0.00,weatherlink.com 1.10,2017-04-25 17:18:00,
2017-04-25 12:33:00,47.5,41.0,29.47,NNW,347,7.0,14.0,79,0.00,,,0.00,weatherlink.com 1.10,2017-04-25 17:33:00,
2017-04-25 12:48:00,47.6,41.0,29.47,NNW,343,3.0,14.0,79,0.00,,,0.00,weatherlink.com 1.10,2017-04-25 17:48:00,
2017-04-25 13:03:00,47.1,41.0,29.47,NNW,344,7.0,14.0,79,0.00,,,0.00,weatherlink.com 1.10,2017-04-25 18:03:00,
2017-04-25 13:19:00,46.8,41.0,29.47,North,5,9.0,20.0,80,0.00,,,0.00,weatherlink.com 1.10,2017-04-25 18:19:00,
2017-04-25 13:34:00,47.1,41.0,29.48,NNW,336,7.0,13.0,79,0.00,,,0.00,weatherlink.com 1.10,2017-04-25 18:34:00,
2017-04-25 13:49:00,47.2,41.0,29.48,North,11,7.0,13.0,79,0.00,,,0.00,weatherlink.com 1.10,2017-04-25 18:49:00,
2017-04-25 14:04:00,47.0,41.0,29.48,NNW,330,4.0,16.0,79,0.00,,,0.00,weatherlink.com 1.10,2017-04-25 19:04:00,